GW3962 Weather Reports


Display with metric or nautical units.
time (UTC)temp
F
wind
direction
speed
MPH
gust
MPH
rain 1hr
in
rain 24hr
in
rain mn
in
humidity
%
barometer
mb
20260508063325 60 36 3.0 3.0 0.00 0.00 0.00 85 1015.6
20260508062822 60 44 4.0 5.0 0.00 0.00 0.00 86 1015.7
20260508062319 60 48 3.0 3.0 0.00 0.00 0.00 85 1015.7
20260508061816 60 25 3.0 3.0 0.00 0.00 0.00 85 1015.9
20260508061313 60 10 2.0 2.0 0.00 0.00 0.00 85 1016.1
20260508060810 60 335 2.0 3.0 0.00 0.00 0.00 86 1016.3
20260508060308 60 7 2.0 3.0 0.00 0.00 0.00 86 1015.8
20260508055802 60 3 1.0 1.0 0.00 0.01 0.01 85 1015.7
20260508055300 60 23 3.0 3.0 0.00 0.01 0.01 85 1015.7
20260508054756 60 19 1.0 2.0 0.00 0.01 0.01 86 1015.6
20260508054254 60 359 3.0 3.0 0.00 0.01 0.01 85 1015.5
20260508053751 60 28 2.0 2.0 0.00 0.01 0.01 85 1015.8
20260508053249 60 5 1.0 2.0 0.00 0.01 0.01 85 1015.7
20260508052746 60 353 0.0 1.0 0.00 0.01 0.01 85 1015.8
20260508052243 60 332 0.0 0.0 0.00 0.01 0.01 84 1015.7
20260508051739 60 15 1.0 2.0 0.00 0.01 0.01 84 1016.1
20260508051234 60 1 2.0 2.0 0.00 0.01 0.01 84 1015.9
20260508050731 61 6 3.0 5.0 0.00 0.01 0.01 83 1015.7
20260508050228 60 19 4.0 5.0 0.00 0.01 0.01 84 1015.4
20260508045724 60 41 3.0 3.0 0.00 0.01 0.01 84 1015.7
20260508045222 60 64 4.0 5.0 0.00 0.01 0.01 84 1015.6
20260508044719 60 59 2.0 3.0 0.00 0.01 0.01 84 1015.6
20260508044216 61 30 3.0 3.0 0.00 0.01 0.01 84 1016.4
20260508043711 60 347 3.0 5.0 0.00 0.01 0.01 84 1016.4
20260508043210 60 32 3.0 5.0 0.00 0.01 0.01 83 1016.1
20260508042706 60 0 2.0 3.0 0.00 0.01 0.01 84 1016.2
20260508042203 60 345 2.0 2.0 0.00 0.01 0.01 84 1015.6
20260508041659 59 74 4.0 5.0 0.00 0.01 0.01 85 1015.3
20260508041156 59 28 1.0 2.0 0.00 0.01 0.01 86 1015.5
20260508040653 60 355 2.0 2.0 0.00 0.01 0.01 85 1016.4
20260508040150 60 320 3.0 3.0 0.00 0.01 0.01 85 1016.8
20260508035647 59 321 3.0 3.0 0.00 0.01 0.01 86 1016.5
20260508035145 59 347 1.0 1.0 0.00 0.01 0.01 86 1016.2
20260508034641 60 359 1.0 2.0 0.00 0.01 0.01 85 1016.5
20260508034138 60 292 1.0 1.0 0.00 0.01 0.01 85 1016.6
20260508033636 60 291 1.0 1.0 0.00 0.01 0.01 84 1016.7
20260508033134 60 295 0.0 0.0 0.00 0.01 0.01 84 1016.5
20260508032630 60 284 1.0 1.0 0.00 0.01 0.01 84 1016.7
20260508032128 60 301 1.0 1.0 0.00 0.01 0.01 83 1016.8
20260508031625 60 304 0.0 0.0 0.00 0.01 0.01 83 1016.9
20260508031121 60 302 1.0 2.0 0.00 0.01 0.01 83 1017.1
20260508030617 60 301 2.0 2.0 0.00 0.01 0.01 84 1017.0
20260508030115 60 318 1.0 1.0 0.00 0.01 0.01 83 1016.7
20260508025611 61 339 1.0 1.0 0.00 0.01 0.01 81 1016.1
20260508025108 61 36 3.0 5.0 0.00 0.01 0.01 81 1015.7
20260508024604 61 39 3.0 5.0 0.00 0.01 0.01 81 1015.4
20260508024102 61 331 0.0 0.0 0.00 0.01 0.01 80 1015.4
20260508023558 61 51 3.0 3.0 0.00 0.01 0.01 80 1015.2
20260508023055 61 32 2.0 2.0 0.00 0.01 0.01 80 1015.2
20260508022551 62 59 6.0 8.0 0.00 0.01 0.01 79 1015.1
20260508022048 61 66 6.0 7.0 0.00 0.01 0.01 79 1014.7
20260508021544 61 53 5.0 7.0 0.00 0.01 0.01 79 1014.5
20260508021040 61 65 5.0 9.0 0.00 0.01 0.01 79 1014.4
20260508020538 61 122 5.0 9.0 0.00 0.01 0.01 79 1014.2
20260508020035 62 72 4.0 6.0 0.00 0.01 0.01 78 1014.6
20260508015532 62 355 2.0 3.0 0.00 0.01 0.01 78 1014.7
20260508015030 62 65 5.0 7.0 0.00 0.01 0.01 77 1014.8
20260508014526 62 18 3.0 5.0 0.00 0.01 0.01 77 1014.7
20260508014022 62 86 3.0 3.0 0.00 0.01 0.01 76 1014.6
20260508013518 62 58 5.0 6.0 0.00 0.01 0.01 76 1014.9
20260508013016 62 54 6.0 9.0 0.00 0.01 0.01 76 1014.8
20260508012513 62 26 4.0 5.0 0.00 0.01 0.01 77 1014.8
20260508012010 62 64 3.0 5.0 0.00 0.01 0.01 76 1014.3
20260508011508 62 89 5.0 6.0 0.00 0.01 0.01 76 1014.1
20260508011005 62 55 4.0 7.0 0.00 0.01 0.01 75 1014.7
20260508010502 63 52 7.0 10.0 0.00 0.01 0.01 74 1014.6
20260508005959 63 78 7.0 9.0 0.00 0.01 0.01 74 1014.6
20260508005450 63 83 5.0 6.0 0.00 0.01 0.01 73 1015.1
20260508004947 63 26 3.0 5.0 0.00 0.01 0.01 73 1015.1
20260508004443 64 52 6.0 9.0 0.00 0.01 0.01 72 1015.6
20260508003940 64 45 5.0 7.0 0.00 0.01 0.01 72 1015.6
20260508003436 64 12 2.0 3.0 0.00 0.01 0.01 71 1015.2
20260508002933 64 50 5.0 6.0 0.00 0.01 0.01 70 1015.1
20260508002430 64 30 5.0 8.0 0.00 0.01 0.01 70 1014.9
20260508001926 64 83 8.0 11.0 0.00 0.01 0.01 69 1015.2
20260508001422 64 90 5.0 8.0 0.00 0.01 0.01 69 1015.3
20260508000919 64 57 6.0 9.0 0.00 0.01 0.01 68 1015.6
20260508000415 65 53 5.0 7.0 0.00 0.01 0.01 69 1015.9
20260507235912 64 32 3.0 3.0 0.00 0.01 0.01 69 1015.8
20260507235409 64 62 4.0 6.0 0.00 0.01 0.01 67 1016.2
20260507234906 65 42 3.0 5.0 0.00 0.01 0.01 66 1016.6
20260507234403 65 38 1.0 2.0 0.00 0.01 0.01 67 1016.8
20260507233859 65 342 2.0 3.0 0.00 0.01 0.01 68 1016.2
20260507233356 65 42 4.0 6.0 0.00 0.01 0.01 68 1016.2
20260507232855 66 64 4.0 6.0 0.00 0.01 0.01 67 1016.4
20260507232351 66 337 0.0 0.0 0.00 0.01 0.01 70 1016.3
20260507231849 65 345 1.0 1.0 0.00 0.01 0.01 68 1016.1
20260507231345 65 1 1.0 2.0 0.00 0.01 0.01 69 1016.2
20260507230841 65 75 5.0 7.0 0.00 0.01 0.01 68 1015.3
20260507230338 65 65 7.0 8.0 0.00 0.01 0.01 67 1015.9
20260507225838 66 354 7.0 9.0 0.00 0.01 0.01 67 1016.2
20260507225334 65 48 4.0 6.0 0.00 0.01 0.01 69 1015.8
20260507224831 65 57 4.0 7.0 0.00 0.01 0.01 69 1016.2
20260507224328 65 44 8.0 10.0 0.00 0.01 0.01 68 1016.1
20260507223824 65 57 3.0 5.0 0.00 0.01 0.01 69 1016.4
20260507223320 65 40 5.0 6.0 0.00 0.01 0.01 69 1016.4
20260507222817 66 41 5.0 7.0 0.00 0.01 0.01 68 1016.7
20260507222314 66 2 4.0 6.0 0.00 0.01 0.01 69 1016.8
20260507221811 65 32 3.0 3.0 0.00 0.01 0.01 70 1016.5
20260507221307 65 23 5.0 6.0 0.00 0.01 0.01 70 1016.3
20260507220803 65 30 6.0 8.0 0.00 0.01 0.01 70 1016.7
20260507220302 66 351 3.0 5.0 0.00 0.01 0.01 69 1016.9
20260507215757 66 309 4.0 6.0 0.00 0.01 0.01 70 1017.3
20260507215255 65 14 2.0 2.0 0.00 0.01 0.01 69 1016.7
20260507214752 65 32 3.0 5.0 0.00 0.01 0.01 69 1017.1
20260507214249 66 41 4.0 7.0 0.00 0.01 0.01 67 1016.8
20260507213744 66 10 6.0 8.0 0.00 0.01 0.01 66 1017.3
20260507213242 67 350 1.0 1.0 0.00 0.01 0.01 66 1017.3
20260507212738 66 46 4.0 6.0 0.00 0.01 0.01 68 1017.3
20260507212235 66 328 4.0 6.0 0.00 0.01 0.01 67 1017.1
20260507211731 66 338 6.0 11.0 0.00 0.01 0.01 68 1017.5
20260507211228 66 330 4.0 5.0 0.00 0.01 0.01 68 1016.9
20260507210725 66 30 3.0 5.0 0.00 0.01 0.01 69 1016.9
20260507210221 64 66 7.0 8.0 0.00 0.01 0.01 69 1016.6
20260507205718 65 53 3.0 5.0 0.00 0.01 0.01 70 1017.0
20260507205214 64 10 3.0 3.0 0.00 0.01 0.01 71 1017.0
20260507204711 64 49 7.0 8.0 0.00 0.01 0.01 71 1017.0
20260507204209 64 32 3.0 7.0 0.00 0.01 0.01 71 1017.1
20260507203707 64 47 5.0 6.0 0.00 0.01 0.01 70 1017.1
20260507203204 64 30 4.0 6.0 0.00 0.01 0.01 71 1017.3
20260507202659 64 32 4.0 7.0 0.00 0.01 0.01 70 1017.3
20260507202155 64 71 6.0 8.0 0.00 0.01 0.01 70 1017.3
20260507201650 64 314 7.0 9.0 0.00 0.01 0.01 69 1017.7
20260507201148 65 47 7.0 9.0 0.00 0.01 0.01 69 1017.7
20260507200644 64 334 2.0 3.0 0.00 0.01 0.01 71 1017.8
20260507200140 64 49 2.0 3.0 0.00 0.01 0.01 71 1018.0
20260507195637 63 35 3.0 5.0 0.00 0.01 0.01 71 1017.7
20260507195134 63 35 3.0 5.0 0.00 0.01 0.01 72 1017.7
20260507194631 64 51 4.0 6.0 0.00 0.01 0.01 72 1017.7
20260507194126 63 33 5.0 6.0 0.00 0.01 0.01 71 1018.2
20260507193624 64 58 6.0 8.0 0.00 0.01 0.01 69 1018.0
20260507193121 64 7 3.0 5.0 0.00 0.01 0.01 71 1018.2
20260507192617 64 12 2.0 2.0 0.00 0.01 0.01 71 1018.4
20260507192114 63 333 1.0 1.0 0.00 0.01 0.01 71 1018.5
20260507191609 63 38 6.0 8.0 0.00 0.01 0.01 71 1018.5
20260507191106 63 32 4.0 6.0 0.00 0.01 0.01 72 1018.2
20260507190603 63 36 9.0 9.0 0.00 0.01 0.01 72 1018.6
20260507185600 62 78 2.0 6.0 0.00 0.01 0.01 75 1018.3
20260507185056 62 52 13.0 17.0 0.00 0.01 0.01 75 1017.8
20260507184555 62 60 10.0 14.0 0.00 0.01 0.01 75 1017.6
20260507184052 62 103 5.0 6.0 0.00 0.01 0.01 76 1017.8
20260507183548 62 74 6.0 8.0 0.00 0.01 0.01 75 1018.2
20260507183045 62 66 10.0 16.0 0.00 0.01 0.01 75 1017.9
20260507182542 62 21 5.0 8.0 0.00 0.01 0.01 75 1018.2
20260507182037 62 58 7.0 10.0 0.00 0.01 0.01 76 1017.6
20260507181535 62 17 8.0 9.0 0.00 0.01 0.01 75 1018.1
20260507181031 62 52 4.0 7.0 0.00 0.01 0.01 76 1018.0
20260507180527 62 62 8.0 10.0 0.00 0.01 0.01 76 1018.3
20260507180024 62 57 9.0 10.0 0.00 0.01 0.01 76 1018.0
20260507175520 62 20 7.0 11.0 0.00 0.01 0.01 76 1018.6
20260507175018 62 51 9.0 10.0 0.00 0.01 0.01 76 1018.7
20260507174515 63 0 2.0 2.0 0.00 0.01 0.01 75 1018.8
20260507174013 62 23 7.0 10.0 0.00 0.01 0.01 78 1018.4
20260507173509 63 69 8.0 9.0 0.00 0.01 0.01 76 1018.5
20260507173007 62 344 5.0 8.0 0.00 0.01 0.01 79 1018.4
20260507172503 61 53 7.0 8.0 0.00 0.01 0.01 82 1018.6
20260507172000 60 23 9.0 13.0 0.00 0.01 0.01 84 1018.4
20260507171455 59 34 10.0 13.0 0.00 0.01 0.01 85 1018.3
20260507170953 59 49 7.0 10.0 0.00 0.01 0.01 86 1018.3
20260507170449 59 51 7.0 10.0 0.00 0.01 0.01 88 1017.8
20260507165946 58 53 9.0 13.0 0.00 0.01 0.01 88 1017.9
20260507165442 58 21 6.0 8.0 0.00 0.01 0.01 90 1017.5
20260507164938 57 25 7.0 9.0 0.00 0.01 0.01 90 1017.9
20260507164435 57 54 9.0 15.0 0.00 0.01 0.01 92 1018.4
20260507163931 57 61 5.0 9.0 0.05 0.01 0.01 92 1019.5
20260507163429 57 35 5.0 9.0 0.05 0.01 0.01 92 1018.5
20260507162926 58 37 8.0 9.0 0.00 0.00 0.00 92 1019.3
20260507162421 57 351 1.0 1.0 0.00 0.00 0.00 90 1019.4
20260507161919 59 57 7.0 10.0 0.00 0.00 0.00 87 1019.5
20260507161414 59 346 4.0 6.0 0.00 0.00 0.00 86 1020.4
20260507160912 58 50 4.0 7.0 0.00 0.00 0.00 85 1020.5
20260507160407 58 19 2.0 6.0 0.00 0.00 0.00 86 1020.4
20260507155904 58 107 9.0 11.0 0.00 0.00 0.00 85 1019.0
20260507155359 58 28 6.0 9.0 0.00 0.00 0.00 86 1019.4
20260507154856 58 345 7.0 10.0 0.00 0.00 0.00 87 1019.2
20260507154354 58 1 1.0 2.0 0.00 0.00 0.00 87 1019.4
20260507153851 58 336 5.0 11.0 0.00 0.00 0.00 88 1018.9
20260507153347 58 18 3.0 5.0 0.00 0.00 0.00 88 1019.6
20260507152844 58 337 3.0 5.0 0.00 0.00 0.00 89 1019.9
20260507152340 58 32 4.0 5.0 0.00 0.00 0.00 89 1019.7
20260507151836 58 61 5.0 7.0 0.00 0.00 0.00 89 1019.4
20260507151332 57 52 3.0 5.0 0.00 0.00 0.00 89 1019.9
20260507150830 58 51 7.0 10.0 0.00 0.00 0.00 89 1019.4
20260507150326 58 40 2.0 3.0 0.00 0.00 0.00 89 1020.0
20260507145822 57 347 1.0 2.0 0.00 0.00 0.00 89 1019.4
20260507145319 57 29 7.0 8.0 0.00 0.00 0.00 89 1019.5
20260507144816 57 73 6.0 8.0 0.00 0.00 0.00 89 1019.5
20260507144313 57 7 3.0 3.0 0.00 0.00 0.00 90 1019.6
20260507143809 57 14 3.0 6.0 0.00 0.00 0.00 90 1019.5
20260507143307 57 34 6.0 11.0 0.00 0.00 0.00 91 1019.2
20260507142803 57 36 7.0 10.0 0.00 0.00 0.00 91 1018.9
20260507142259 57 11 7.0 9.0 0.00 0.00 0.00 91 1019.4
20260507141756 57 28 3.0 6.0 0.00 0.00 0.00 92 1019.4
20260507141253 57 14 5.0 8.0 0.00 0.00 0.00 92 1018.9
20260507140749 57 47 5.0 7.0 0.00 0.00 0.00 92 1019.2
20260507140247 57 335 4.0 6.0 0.00 0.00 0.00 92 1019.3
20260507135744 57 18 5.0 7.0 0.00 0.00 0.00 92 1019.3
20260507135241 57 26 4.0 7.0 0.00 0.00 0.00 92 1019.0
20260507134737 57 14 7.0 10.0 0.00 0.00 0.00 92 1018.8
20260507134234 57 69 11.0 14.0 0.00 0.00 0.00 92 1018.7
20260507133730 57 41 9.0 14.0 0.00 0.00 0.00 92 1018.7
20260507133227 56 39 11.0 15.0 0.00 0.00 0.00 92 1018.6
20260507132724 56 57 5.0 10.0 0.00 0.00 0.00 92 1018.4
20260507132221 56 55 6.0 10.0 0.00 0.00 0.00 93 1018.4
20260507131717 56 23 4.0 6.0 0.00 0.00 0.00 93 1018.7
20260507131215 56 37 4.0 6.0 0.00 0.00 0.00 92 1018.5
20260507130711 56 57 8.0 13.0 0.00 0.00 0.00 93 1018.3
20260507130209 56 46 7.0 9.0 0.00 0.00 0.00 93 1018.3
20260507125708 56 40 5.0 8.0 0.00 0.00 0.00 93 1018.7
20260507125205 56 35 12.0 17.0 0.00 0.00 0.00 93 1018.3
20260507124701 56 46 11.0 21.0 0.00 0.00 0.00 93 1018.3
20260507124158 56 345 7.0 10.0 0.00 0.00 0.00 93 1018.5
20260507123657 56 50 4.0 8.0 0.00 0.00 0.00 93 1018.5
20260507123154 56 51 10.0 14.0 0.00 0.00 0.00 93 1018.7
20260507122649 56 39 3.0 5.0 0.00 0.00 0.00 93 1018.5
20260507122145 56 53 6.0 7.0 0.00 0.00 0.00 93 1018.6
20260507121641 56 31 5.0 7.0 0.00 0.00 0.00 93 1018.8
20260507121137 56 30 5.0 7.0 0.00 0.00 0.00 93 1018.2
20260507120633 56 32 9.0 14.0 0.00 0.00 0.00 93 1017.9
20260507120130 56 29 7.0 10.0 0.00 0.00 0.00 93 1017.6
20260507115626 57 35 5.0 9.0 0.00 0.00 0.00 92 1017.4
20260507115122 57 20 2.0 3.0 0.00 0.00 0.00 92 1017.7
20260507114618 57 42 7.0 10.0 0.00 0.00 0.00 92 1017.5
20260507114116 57 63 11.0 20.0 0.00 0.00 0.00 92 1017.4
20260507113613 57 27 8.0 13.0 0.00 0.00 0.00 92 1017.4
20260507113110 57 30 5.0 7.0 0.00 0.00 0.00 91 1017.6
20260507112608 57 34 7.0 13.0 0.00 0.00 0.00 91 1017.8
20260507112104 57 35 7.0 9.0 0.00 0.00 0.00 91 1017.9
20260507111601 57 348 6.0 8.0 0.00 0.00 0.00 91 1017.8
20260507111058 57 60 8.0 13.0 0.00 0.00 0.00 91 1017.7
20260507110554 57 335 8.0 14.0 0.00 0.00 0.00 91 1017.6
20260507110051 57 56 7.0 14.0 0.00 0.00 0.00 91 1017.5
20260507105548 57 40 9.0 15.0 0.00 0.00 0.00 91 1017.5
20260507105044 57 17 7.0 8.0 0.00 0.00 0.00 91 1017.4
20260507104541 57 27 2.0 3.0 0.00 0.00 0.00 91 1017.4
20260507104037 58 26 5.0 6.0 0.00 0.00 0.00 91 1017.8
20260507103534 58 36 7.0 15.0 0.00 0.00 0.00 90 1017.8
20260507103031 58 42 3.0 7.0 0.00 0.00 0.00 91 1017.8
20260507102527 57 317 3.0 5.0 0.00 0.00 0.00 91 1017.2
20260507102023 58 28 3.0 5.0 0.00 0.00 0.00 90 1016.8
20260507101519 58 23 4.0 6.0 0.00 0.00 0.00 90 1017.3
20260507101015 58 25 2.0 3.0 0.00 0.00 0.00 90 1017.4
20260507100513 58 26 5.0 7.0 0.00 0.00 0.00 90 1017.6
20260507100011 58 40 11.0 15.0 0.00 0.00 0.00 90 1017.0
20260507095508 58 45 6.0 8.0 0.00 0.00 0.00 90 1017.4
20260507095005 58 8 3.0 6.0 0.00 0.00 0.00 90 1017.4
20260507094501 58 34 6.0 10.0 0.00 0.00 0.00 90 1017.6
20260507093958 58 52 4.0 6.0 0.00 0.00 0.00 90 1017.3
20260507093456 58 17 1.0 2.0 0.00 0.00 0.00 90 1017.2
20260507092954 58 53 3.0 6.0 0.00 0.00 0.00 90 1017.3
20260507092450 58 69 8.0 11.0 0.00 0.00 0.00 90 1016.7
20260507091947 58 45 4.0 6.0 0.00 0.00 0.00 90 1017.1
20260507091444 58 32 6.0 7.0 0.00 0.00 0.00 90 1017.1
20260507090939 58 35 7.0 9.0 0.00 0.00 0.00 90 1017.1
20260507090436 58 37 4.0 6.0 0.00 0.00 0.00 90 1016.8
20260507085932 58 55 6.0 9.0 0.00 0.00 0.00 90 1016.4
20260507085429 58 32 5.0 7.0 0.00 0.00 0.00 89 1016.5
20260507084926 58 20 6.0 9.0 0.00 0.00 0.00 90 1016.4
20260507084423 58 30 5.0 6.0 0.00 0.00 0.00 89 1016.5
20260507083921 58 47 7.0 9.0 0.00 0.00 0.00 89 1016.6
20260507083417 58 56 5.0 8.0 0.00 0.00 0.00 89 1016.6
20260507082913 58 8 3.0 3.0 0.00 0.00 0.00 89 1016.2
20260507082409 59 357 2.0 2.0 0.00 0.00 0.00 89 1016.3
20260507081906 59 66 3.0 3.0 0.00 0.00 0.00 89 1016.7
20260507081402 59 35 5.0 9.0 0.00 0.00 0.00 89 1016.4
20260507080859 59 20 1.0 1.0 0.00 0.00 0.00 88 1016.1
20260507080355 59 23 3.0 5.0 0.00 0.00 0.00 88 1016.3
20260507075851 59 357 2.0 2.0 0.00 0.00 0.00 89 1016.3
20260507075347 59 20 3.0 3.0 0.00 0.00 0.00 88 1016.1
20260507074843 59 23 7.0 9.0 0.00 0.00 0.00 88 1015.7
20260507074341 59 54 3.0 5.0 0.00 0.00 0.00 88 1016.1
20260507073838 59 48 4.0 6.0 0.00 0.00 0.00 88 1016.4
20260507073334 59 344 1.0 1.0 0.00 0.00 0.00 88 1016.6
20260507072832 59 43 3.0 3.0 0.00 0.00 0.00 87 1015.9
20260507072329 59 20 7.0 9.0 0.00 0.00 0.00 87 1015.4
20260507071826 59 46 5.0 8.0 0.00 0.00 0.00 87 1015.4
20260507071323 59 12 5.0 8.0 0.00 0.00 0.00 87 1015.6
20260507070819 59 56 5.0 9.0 0.00 0.00 0.00 87 1015.6
20260507070317 59 19 6.0 8.0 0.00 0.00 0.00 87 1015.8
20260507065814 59 75 4.0 5.0 0.00 0.00 0.00 86 1015.8
20260507065310 59 71 5.0 8.0 0.00 0.00 0.00 86 1015.6
20260507064808 59 39 6.0 8.0 0.00 0.00 0.00 86 1016.1
20260507064306 59 65 5.0 6.0 0.00 0.00 0.00 86 1015.8
20260507063804 59 43 8.0 10.0 0.00 0.00 0.00 86 1015.4